Presque Isle, ME

9:43 PM EDT on March 28, 2017 (GMT -0400)
Northern Maine Regional At Presque Isle

Weather History for KPQI - June, 2013

Change the Weather History Date:

Tuesday, June 25, 2013

  Actual Average Record
Temperature  
Mean Temperature 74 °F -  
Max Temperature 87 °F 74 °F 93 °F (2003)
Min Temperature 62 °F 50 °F 34 °F (1927)
Cooling Degree Days 10    
Growing Degree Days 24 (Base 50)    
Moisture  
Dew Point 62 °F    
Average Humidity 72    
Maximum Humidity 94    
Minimum Humidity 43    
Precipitation  
Precipitation 0.07 in - - ()
Sea Level Pressure  
Sea Level Pressure 29.66 in    
Wind  
Wind Speed 4 mph (WSW)    
Max Wind Speed 22 mph    
Max Gust Speed 32 mph    
Visibility 9 miles    
Events      
Averages and records for this station are not official NWS values.
T = Trace of Precipitation, MM = Missing Value Source: NWS Daily Summary

Daily Weather History Graph

Daily Weather History Graph

Search for Another Location

Airport or City:

Trip Planner

Search our weather history database for the weather conditions in past years. The results will help you decide how hot, cold, wet, or windy it might be!

Date:

Astronomy

Jun. 25, 2013 Rise Set
Actual Time 4:39 AM EDT 8:30 PM EDT
Civil Twilight 4:00 AM EDT 9:09 PM EDT
Nautical Twilight 3:06 AM EDT 10:03 PM EDT
Astronomical Twilight 1:48 AM EDT 11:21 PM EDT
Moon 10:00 PM EDT (6/25) 7:25 AM EDT (6/25)
Length of Visible Light 17h 09m
Length of Day
15h 50m
Waning Gibbous, 93% of the Moon is Illuminated
Jun 25
Waning Gibbous
Jun 30
Last Quarter
Jul 8
New
Jul 15
First Quarter
Jul 22
Full

Hourly Weather History & Observations

Time (EDT) Temp. Heat Index Dew Point Humidity Pressure Visibility Wind Dir Wind Speed Gust Speed Precip Events Conditions
12:15 AM 66.2 °F - 64.4 °F 94% 29.68 in 3.0 mi Calm Calm - N/A   Clear
12:35 AM 66.2 °F - 62.6 °F 88% 29.68 in 0.2 mi East 3.5 mph - N/A   Unknown
12:55 AM 66.2 °F - 62.6 °F 88% 29.69 in 0.8 mi Calm Calm - N/A   Mostly Cloudy
1:15 AM 66.2 °F - 62.6 °F 88% 29.69 in 0.5 mi Calm Calm - N/A   Mostly Cloudy
1:35 AM 64.4 °F - 62.6 °F 94% 29.69 in 0.8 mi Calm Calm - N/A   Mostly Cloudy
1:55 AM 62.6 °F - 60.8 °F 94% 29.69 in 0.5 mi SW 3.5 mph - N/A   Unknown
2:15 AM 62.6 °F - 60.8 °F 94% 29.69 in 7.0 mi WSW 5.8 mph - N/A   Clear
2:35 AM 66.2 °F - 62.6 °F 88% 29.69 in 10.0 mi SW 4.6 mph - N/A   Clear
2:55 AM 62.6 °F - 60.8 °F 94% 29.69 in 5.0 mi Calm Calm - N/A   Clear
3:15 AM 64.4 °F - 60.8 °F 88% 29.69 in 10.0 mi WSW 4.6 mph - N/A   Clear
3:35 AM 62.6 °F - 59.0 °F 88% 29.69 in 8.0 mi Calm Calm - N/A   Clear
4:15 AM 64.4 °F - 60.8 °F 88% 29.68 in 10.0 mi Calm Calm - N/A   Scattered Clouds
4:35 AM 64.4 °F - 60.8 °F 88% 29.68 in 10.0 mi SW 5.8 mph - N/A   Scattered Clouds
4:55 AM 64.4 °F - 60.8 °F 88% 29.68 in 10.0 mi Calm Calm - N/A   Partly Cloudy
5:15 AM 64.4 °F - 59.0 °F 83% 29.69 in 10.0 mi South 4.6 mph - N/A   Clear
5:35 AM 64.4 °F - 60.8 °F 88% 29.68 in 10.0 mi South 3.5 mph - N/A   Clear
5:55 AM 64.4 °F - 60.8 °F 88% 29.70 in 10.0 mi Calm Calm - N/A   Clear
6:15 AM 64.4 °F - 60.8 °F 88% 29.71 in 10.0 mi Calm Calm - N/A   Clear
6:35 AM 66.2 °F - 60.8 °F 83% 29.74 in 10.0 mi NW 4.6 mph - N/A   Mostly Cloudy
6:55 AM 66.2 °F - 60.8 °F 83% 29.73 in 8.0 mi NNE 5.8 mph - N/A   Overcast
7:15 AM 66.2 °F - 60.8 °F 83% 29.72 in 10.0 mi South 3.5 mph - N/A   Mostly Cloudy
7:35 AM 64.4 °F - 60.8 °F 88% 29.72 in 10.0 mi SW 5.8 mph - N/A   Partly Cloudy
7:55 AM 64.4 °F - 60.8 °F 88% 29.74 in 10.0 mi SW 5.8 mph - N/A   Mostly Cloudy
8:15 AM 64.4 °F - 60.8 °F 88% 29.71 in 8.0 mi South 5.8 mph - 0.01 in   Mostly Cloudy
8:35 AM 66.2 °F - 62.6 °F 88% 29.71 in 10.0 mi SSW 3.5 mph - 0.01 in   Clear
8:55 AM 69.8 °F - 62.6 °F 78% 29.71 in 10.0 mi SW 6.9 mph - 0.01 in   Clear
9:15 AM 71.6 °F - 62.6 °F 73% 29.70 in 10.0 mi SW 4.6 mph - N/A   Clear
9:35 AM 73.4 °F - 62.6 °F 69% 29.70 in 9.0 mi South 6.9 mph - N/A   Clear
9:55 AM 73.4 °F - 62.6 °F 69% 29.70 in 10.0 mi SSW 6.9 mph - N/A   Partly Cloudy
10:15 AM 75.2 °F - 62.6 °F 65% 29.69 in 10.0 mi SW 9.2 mph - N/A   Mostly Cloudy
10:35 AM 73.4 °F - 62.6 °F 69% 29.69 in 10.0 mi WSW 5.8 mph - N/A   Overcast
10:55 AM 73.4 °F - 62.6 °F 69% 29.71 in 10.0 mi WSW 8.1 mph - N/A   Overcast
11:15 AM 75.2 °F - 64.4 °F 69% 29.70 in 9.0 mi SW 3.5 mph - N/A   Overcast
11:35 AM 75.2 °F - 64.4 °F 69% 29.70 in 10.0 mi West 4.6 mph - N/A   Overcast
11:55 AM 75.2 °F - 64.4 °F 69% 29.70 in 10.0 mi South 4.6 mph - N/A   Overcast
12:15 PM 77.0 °F - 64.4 °F 65% 29.70 in 10.0 mi South 5.8 mph - N/A   Overcast
12:35 PM 78.8 °F - 66.2 °F 65% 29.69 in 10.0 mi Calm Calm - N/A   Mostly Cloudy
12:55 PM 80.6 °F 82.7 °F 66.2 °F 61% 29.68 in 10.0 mi WNW 4.6 mph - N/A   Partly Cloudy
1:15 PM 82.4 °F 83.9 °F 64.4 °F 54% 29.67 in 10.0 mi West 5.8 mph - N/A   Partly Cloudy
1:35 PM 82.4 °F 84.6 °F 66.2 °F 58% 29.66 in 10.0 mi WNW 6.9 mph - N/A   Partly Cloudy
1:55 PM 82.4 °F 84.6 °F 66.2 °F 58% 29.65 in 10.0 mi NNW 4.6 mph - N/A   Partly Cloudy
2:15 PM 84.2 °F 86.6 °F 66.2 °F 55% 29.64 in 10.0 mi WNW 5.8 mph - N/A   Scattered Clouds
2:35 PM 84.2 °F 85.6 °F 64.4 °F 51% 29.63 in 10.0 mi SSW 8.1 mph - N/A   Scattered Clouds
2:55 PM 84.2 °F 85.6 °F 64.4 °F 51% 29.61 in 10.0 mi SSW 8.1 mph - N/A   Mostly Cloudy
3:15 PM 86.0 °F 87.3 °F 64.4 °F 48% 29.60 in 10.0 mi SSW 11.5 mph 16.1 mph N/A   Partly Cloudy
3:35 PM 87.8 °F 89.4 °F 64.4 °F 46% 29.60 in 10.0 mi West 6.9 mph - N/A   Scattered Clouds
3:55 PM 86.0 °F 86.6 °F 62.6 °F 45% 29.59 in 10.0 mi WSW 6.9 mph - N/A   Scattered Clouds
4:15 PM 87.8 °F 88.5 °F 62.6 °F 43% 29.58 in 10.0 mi WSW 9.2 mph - N/A   Scattered Clouds
4:35 PM 87.8 °F 88.5 °F 62.6 °F 43% 29.57 in 10.0 mi SW 9.2 mph - N/A   Clear
4:55 PM 87.8 °F 88.5 °F 62.6 °F 43% 29.57 in 10.0 mi WSW 6.9 mph - N/A   Clear
5:15 PM 87.8 °F 88.5 °F 62.6 °F 43% 29.56 in 10.0 mi SW 9.2 mph - N/A   Partly Cloudy
5:35 PM 86.0 °F 86.6 °F 62.6 °F 45% 29.56 in 10.0 mi SW 8.1 mph - N/A   Partly Cloudy
5:55 PM 84.2 °F 85.0 °F 62.6 °F 48% 29.56 in 10.0 mi SW 15.0 mph 19.6 mph N/A   Scattered Clouds
6:15 PM 84.2 °F 85.0 °F 62.6 °F 48% 29.56 in 10.0 mi SW 11.5 mph - N/A   Partly Cloudy
6:35 PM 84.2 °F 85.0 °F 62.6 °F 48% 29.56 in 10.0 mi SW 9.2 mph - N/A   Clear
6:55 PM 84.2 °F 85.0 °F 62.6 °F 48% 29.57 in 10.0 mi SW 8.1 mph - N/A   Clear
7:15 PM 82.4 °F 83.4 °F 62.6 °F 51% 29.58 in 10.0 mi SW 10.4 mph - N/A   Clear
7:35 PM 80.6 °F 81.8 °F 62.6 °F 54% 29.59 in 10.0 mi SW 6.9 mph - N/A   Partly Cloudy
7:55 PM 80.6 °F 82.3 °F 64.4 °F 58% 29.59 in 10.0 mi WSW 4.6 mph - N/A   Partly Cloudy
8:15 PM 78.8 °F - 64.4 °F 61% 29.59 in 10.0 mi SW 6.9 mph - N/A   Mostly Cloudy
8:35 PM 78.8 °F - 64.4 °F 61% 29.63 in 9.0 mi NNW 21.9 mph 27.6 mph N/A   Overcast
8:55 PM 68.0 °F - 62.6 °F 83% 29.63 in 9.0 mi NNE 18.4 mph 32.2 mph 0.06 in   Overcast
9:15 PM 66.2 °F - 62.6 °F 88% 29.65 in 10.0 mi NNE 8.1 mph - N/A   Overcast
9:35 PM 66.2 °F - 62.6 °F 88% 29.65 in 10.0 mi ENE 5.8 mph - N/A   Overcast
9:55 PM 66.2 °F - 60.8 °F 83% 29.65 in 10.0 mi Calm Calm - N/A   Overcast
10:15 PM 64.4 °F - 60.8 °F 88% 29.64 in 10.0 mi NNE 4.6 mph - N/A   Mostly Cloudy
10:35 PM 64.4 °F - 60.8 °F 88% 29.64 in 10.0 mi NW 3.5 mph - N/A   Scattered Clouds
10:55 PM 64.4 °F - 60.8 °F 88% 29.64 in 10.0 mi NW 3.5 mph - N/A   Partly Cloudy
11:15 PM 64.4 °F - 60.8 °F 88% 29.65 in 10.0 mi West 3.5 mph - N/A   Mostly Cloudy
11:35 PM 62.6 °F - 60.8 °F 94% 29.65 in 10.0 mi Calm Calm - N/A   Partly Cloudy
11:55 PM 62.6 °F - 59.0 °F 88% 29.65 in 10.0 mi NNW 5.8 mph - N/A   Scattered Clouds